Terminal Aerodrome Forecast
Issued by NWS Dodge City, KS

Home | Current Version | Previous Version | Text Only | Print | Product List | Glossary On
Versions: 1 2 3 4 5 6 7 8 9 10 11 12 13 14 15 16 17 18 19 20 21 22 23 24 25 26 27 28 29 30 31 32 33
000
FTUS43 KDDC 021127
TAFDDC
TAF
KDDC 021127Z 0212/0312 06008KT 3SM BR BKN007 BKN025
      TEMPO 0212/0213 2SM BR BKN005
     FM021500 VRB06KT P6SM SCT015
     FM021800 14012G18KT P6SM SKC
     FM022300 18007KT P6SM SKC=

USA.gov is the U.S. government's official web portal to all federal, state and local government web resources and services.